This demonstration page uses our WeatherBlox Daily Observations layout. Learn more.

Left ArrowRight Arrow

Hourly Observations for May 12, 2018

Temp ( °F °C ) Dew Point ( °F °C ) Humidity (%) Winds ( mph kmh ) Pressure ( in mb ) Visibility ( mi km ) Precip ( " mm )
12:51 am 00:51 Clear 79 26.1 34 1.1 20 20 S 8 13 29.64 1004 10 16 0.00 0.00
1:51 am 01:51 Clear 77 25 28 -2.2 16 16 S 13 20 29.63 1003 10 16 0.00 0.00
2:51 am 02:51 Clear 74 23.3 27 -2.8 17 17 S 16 26 29.64 1004 10 16 0.00 0.00
3:51 am 03:51 Clear 74 23.3 29 -1.7 19 19 SSE 12 19 29.64 1004 10 16 0.00 0.00
4:51 am 04:51 Clear 72 22.2 29 -1.7 20 20 E 12 19 29.65 1004 10 16 0.00 0.00
5:51 am 05:51 Sunny 72 22.2 29 -1.7 20 20 SE 8 13 29.69 1005 10 16 0.00 0.00
6:51 am 06:51 Sunny 74 23.3 29 -1.7 19 19 SE 13 20 29.71 1006 10 16 0.00 0.00
7:51 am 07:51 Sunny 78 25.6 29 -1.7 16 16 SSE 16 26 29.72 1006 10 16 0.00 0.00
8:51 am 08:51 Sunny 82 27.8 24 -4.4 12 12 S 24 39 29.72 1006 10 16 0.00 0.00
9:51 am 09:51 Sunny 85 29.4 23 -5 10 10 SSW 20 31 29.72 1006 10 16 0.00 0.00
10:51 am 10:51 Sunny 87 30.6 21 -6.1 9 9 S 17 28 29.71 1006 10 16 0.00 0.00
11:51 am 11:51 Sunny 90 32.2 18 -7.8 7 7 S 21 33 29.68 1005 10 16 0.00 0.00
12:51 pm 12:51 Sunny 92 33.3 16 -8.9 6 6 WNW 17 28 29.66 1004 10 16 0.00 0.00
1:51 pm 13:51 Sunny 92 33.3 13 -10.6 5 5 WSW 17 28 29.64 1004 10 16 0.00 0.00
2:51 pm 14:51 Sunny 93 33.9 15 -9.4 6 6 undefined N/A 29.62 1003 10 16 0.00 0.00
3:51 pm 15:51 Sunny 92 33.3 16 -8.9 6 6 SW 10 17 29.62 1003 10 16 0.00 0.00
4:51 pm 16:51 Sunny 91 32.8 20 -6.7 7 7 SSW 22 35 29.63 1003 10 16 0.00 0.00
5:51 pm 17:51 Sunny 89 31.7 27 -2.8 11 11 SSW 22 35 29.64 1004 10 16 0.00 0.00
6:51 pm 18:51 Sunny 86 30 29 -1.7 13 13 SSW 18 30 29.66 1005 10 16 0.00 0.00
7:51 pm 19:51 Clear 83 28.3 26 -3.3 12 12 SSW 14 22 29.69 1005 10 16 0.00 0.00
8:51 pm 20:51 Clear 81 27.2 28 -2.2 14 14 SSW 14 22 29.72 1006 10 16 0.00 0.00
9:51 pm 21:51 Clear 79 26.1 28 -2.2 15 15 S 10 17 29.74 1007 10 16 0.00 0.00
10:51 pm 22:51 Clear 74 23.3 29 -1.7 19 19 NW 9 15 29.76 1008 10 16 0.00 0.00
11:51 pm 23:51 Clear 72 22.2 29 -1.7 20 20 WNW 9 15 29.78 1008 10 16 0.00 0.00

Powered by AerisWeather